User: anonymous   Login
Location: Beaurevoir
(49.9971°N, 3.3085°E)
Time: 18:04:16
(UTC+00:00)
Language:

Cosmos 1674 Rocket - Orbit

View from above orbital plane
View from above orbital plane
View from above satellite
View from above satellite

Ground track
Ground track

The orbit data is extracted from the following two-line orbital elements,

1 15945U 85069B   24195.85570293  .00000753  00000-0  84645-4 0  9998
2 15945  82.5255 232.2978 0020022  35.7735 324.4818 14.85262051 83164
Epoch (UTC): 13 July 2024 20:32:12
Eccentricity: 0.0020022
inclination: 82.5255°
perigee height: 599 km
apogee height: 627 km
right ascension of ascending node: 232.2978°
argument of perigee: 35.7735°
revolutions per day: 14.85262051
mean anomaly at epoch: 324.4818°
orbit number at epoch: 8316

The dashed part of the orbit path shows where the satellite is in the earth's shadow,  

DLR